RH
68 68 69 68 74 72 72 68 70 74 77 71 66 69 67 64 57 65 68 71 73 73 69 68 67 71 78 78 73 73 72 73 74 67 68 58 65 61 59 69 69 69 68
67 68 70 72 81 76 66 75 79 75 74 74 70 67 70 73 71 76 76 77 72 76 75 64 68 78 81 74 74 72 73 72 75 71 65 68 69 66 66 63 66 68 72
59 62 70 78 75 71 46 61 77 81 73 77 76 72 71 70 72 74 77 78 76 78 73 66 64 71 78 81 78 77 76 72 70 70 67 68 72 68 69 67 69 69 72
40 43 40 36 48 70 77 74 74 74 73 78 78 75 73 72 74 74 75 76 75 72 70 73 73 74 69 69 78 78 76 80 78 77 74 71 68 63 66 58 69 72 71
44 47 50 48 42 43 58 73 81 77 75 74 77 80 76 76 79 78 80 76 75 76 74 74 70 70 69 69 74 80 80 80 83 83 81 75 68 67 68 63 62 71 68
52 54 56 57 55 47 44 46 50 63 77 85 82 75 75 76 76 78 78 84 81 77 76 77 70 69 70 72 76 74 79 82 83 86 86 81 71 67 74 70 75 76 69
51 55 57 59 60 62 62 55 48 46 48 61 76 86 85 76 72 73 82 83 83 83 79 80 74 68 66 71 75 73 76 78 77 79 82 82 75 72 70 74 75 77 77
58 57 57 58 60 64 66 67 62 57 55 52 50 61 78 85 88 82 79 79 78 84 85 80 78 74 65 68 67 68 70 71 72 74 72 71 74 75 80 84 84 76 78
52 52 55 63 63 65 66 65 62 61 65 62 59 61 63 59 69 76 80 89 86 84 85 83 81 76 76 74 73 71 71 70 74 73 76 78 79 74 75 84 90 87 77
48 49 54 59 61 63 65 66 66 65 65 73 74 65 59 60 62 56 66 71 77 86 76 81 90 81 77 78 82 76 73 78 77 76 76 71 72 76 79 81 82 88 84
67 67 66 66 64 63 66 68 69 72 73 69 66 66 65 60 63 65 55 66 69 73 96 99 88 85 84 81 79 80 81 80 78 75 75 73 70 68 68 77 80 80 74
69 67 66 65 66 68 72 77 79 80 77 72 72 71 67 70 64 62 63 65 74 67 78 98 97 93 85 82 89 85 80 80 80 79 78 78 83 81 77 66 75 77 72
71 69 64 61 62 65 74 75 84 85 85 81 76 73 67 64 66 67 66 70 76 71 76 98 97 75 70 75 69 72 78 79 84 76 71 71 74 81 77 70 63 77 82
77 75 74 83 83 96 97 82 83 88 87 88 86 83 74 71 68 68 69 71 80 99 93 75 71 51 54 37 63 59 69 72 70 76 68 66 69 77 72 66 67 67 77
76 80 87 93 93 95 94 93 93 92 94 96 90 91 86 76 69 77 85 75 77 82 79 75 79 69 56 64 61 51 59 67 76 79 78 75 70 67 60 62 76 75 78
99 99 100 94 92 97 99 98 99 86 79 82 81 89 83 81 71 79 83 84 85 87 96 98 94 89 78 74 62 58 56 54 66 70 92 87 78 65 58 61 81 80 73
95 94 95 94 93 96 98 99 98 75 68 60 66 76 81 80 74 74 79 85 83 96 100 98 90 84 81 77 79 82 79 64 55 70 75 82 86 79 66 65 76 78 75
97 100 100 97 99 99 100 100 100 100 94 71 67 70 70 78 78 74 75 83 81 77 83 88 84 78 73 75 68 93 90 74 67 66 63 81 76 78 73 70 73 77 76
100 99 100 100 100 98 99 98 98 98 99 99 94 76 70 78 79 79 79 73 73 73 72 69 69 80 84 83 82 76 81 89 87 91 84 81 78 65 75 76 70 77 79
99 100 100 99 97 98 98 97 98 99 99 100 100 100 100 96 82 81 80 78 74 69 65 59 58 66 83 90 92 90 88 82 77 82 88 80 98 72 70 73 73 80 82
90 93 92 93 97 100 100 98 100 98 99 100 99 99 100 100 89 86 78 83 80 71 67 64 62 66 86 87 82 96 99 89 83 98 99 99 100 85 74 75 72 74 85
71 88 91 88 95 98 100 100 100 100 100 100 95 96 100 97 81 76 76 79 80 68 64 69 64 66 72 79 82 91 97 99 81 80 98 98 99 89 77 72 70 79 86
52 52 65 77 82 88 92 98 99 100 100 100 100 99 100 100 93 83 74 72 81 74 79 80 73 70 74 77 90 87 98 96 86 81 80 91 94 97 80 80 72 75 78
31 32 37 46 56 61 63 70 92 100 100 99 100 99 100 100 100 100 100 96 77 78 79 79 85 87 86 93 96 100 98 100 97 87 92 90 86 83 80 74 70 70 75
41 37 35 33 31 32 44 60 62 74 98 99 99 100 100 100 100 100 100 100 98 100 100 99 100 100 100 84 91 88 98 99 99 93 89 90 86 81 83 78 77 71 74
54 49 45 42 40 38 34 36 54 65 72 92 99 100 100 99 100 100 100 100 99 100 100 100 100 100 100 88 90 85 90 93 98 95 95 95 82 79 84 80 75 79 73
Wind_Speed
16 16 20 15 14 13 13 15 18 17 19 20 20 23 25 24 24 23 22 20 19 19 20 19 20 18 16 15 14 15 11 12 14 11 9 7 8 8 10 13 14 16 16
12 14 16 17 14 16 15 18 19 20 20 22 23 24 24 24 24 24 22 22 24 24 24 24 21 19 18 17 16 17 16 14 13 12 8 7 8 8 9 12 12 14 14
11 11 8 10 10 17 17 21 20 19 21 24 26 28 28 28 28 28 28 25 25 29 27 23 24 23 22 19 19 19 19 18 17 16 14 11 9 8 7 6 8 11 11
13 14 12 10 9 10 12 20 25 23 22 22 25 29 31 30 31 30 29 28 28 26 27 25 26 26 25 23 22 22 21 19 18 17 17 17 15 13 12 12 10 10 12
16 14 12 10 9 11 12 14 17 21 27 28 28 27 28 34 32 32 30 29 29 28 27 32 28 28 28 24 24 23 21 22 21 19 18 18 18 17 15 14 13 14 14
13 11 10 11 10 10 14 16 17 19 21 24 25 28 31 29 33 35 33 33 32 31 32 30 31 30 29 28 26 26 25 24 23 23 21 19 17 17 16 15 14 14 13
19 17 16 15 15 14 15 16 18 19 21 22 23 22 26 31 31 31 34 38 36 35 35 33 33 33 31 30 28 28 29 27 26 25 25 22 18 16 15 15 16 18 17
18 19 20 20 22 21 21 21 22 23 25 25 25 25 23 24 28 32 34 36 40 40 37 35 34 34 33 32 31 30 30 30 29 28 28 25 21 18 18 17 17 20 22
28 29 27 26 26 26 27 28 29 28 28 29 28 28 26 27 26 25 26 31 32 39 38 40 35 34 33 31 30 31 31 32 29 28 29 28 25 23 23 26 25 22 24
28 29 28 27 28 31 32 34 34 33 32 32 33 33 33 32 27 28 27 28 28 32 34 50 42 32 32 29 29 30 34 31 28 29 26 27 27 26 27 24 24 24 22
25 26 27 26 27 28 29 30 31 32 33 35 36 34 32 32 32 27 28 29 29 29 32 34 37 36 37 34 32 31 31 29 30 28 29 27 25 24 25 26 27 27 26
26 27 28 28 29 30 30 30 29 29 32 34 35 35 33 30 31 31 27 28 29 28 28 30 31 41 40 34 34 36 35 32 34 34 34 35 33 31 29 28 29 29 28
28 28 29 30 30 30 31 31 31 29 29 31 33 34 33 32 29 28 28 29 26 24 22 21 27 25 32 37 36 34 34 35 36 39 41 40 39 34 30 29 31 32 29
29 31 32 30 30 29 30 30 28 27 28 29 29 30 31 30 27 26 26 26 24 23 27 25 22 21 28 35 49 39 43 42 42 42 42 43 40 37 35 32 32 33 33
29 30 29 27 27 30 30 27 24 23 23 25 26 26 28 29 27 22 21 23 24 24 25 30 27 27 32 45 52 52 50 46 42 43 42 43 43 39 37 32 31 33 33
26 26 25 25 25 25 23 21 20 20 20 21 23 25 27 29 28 24 21 19 23 22 24 28 32 35 40 40 39 42 48 50 47 40 42 42 44 41 38 35 33 34 33
23 23 23 23 22 21 22 24 26 25 25 24 22 22 23 26 27 27 23 21 23 25 29 31 32 34 36 39 42 41 41 38 36 36 36 43 44 42 39 37 37 35 34
19 19 19 21 21 23 23 25 27 30 34 33 27 20 19 23 25 28 29 29 28 29 34 33 33 33 36 32 34 33 30 30 33 39 39 39 43 44 43 42 39 40 36
20 20 21 21 21 24 25 27 27 26 29 32 32 29 28 25 25 28 30 34 32 29 30 32 33 35 36 36 33 31 33 32 32 38 43 43 40 44 44 43 41 40 36
21 20 20 22 23 24 22 19 19 19 21 24 28 31 31 26 23 25 27 28 31 30 27 26 29 33 31 32 34 34 39 42 40 37 41 42 40 43 45 43 39 39 38
23 22 22 23 23 23 22 21 21 21 23 26 29 30 26 25 22 22 25 25 25 29 29 27 25 25 25 25 25 25 29 32 35 31 32 34 35 40 42 42 41 39 36
24 23 24 25 25 25 24 22 22 24 26 29 31 33 25 18 21 22 24 27 23 24 26 21 22 22 20 21 25 30 31 28 34 37 32 32 31 34 38 40 38 36 32
25 27 27 26 26 27 28 28 28 27 27 28 30 24 15 11 15 20 23 24 21 16 17 18 19 20 21 23 26 24 27 30 29 34 32 28 26 29 33 31 31 31 32
26 28 28 29 29 30 30 30 31 33 34 33 29 27 17 9 9 9 12 13 14 15 18 18 19 20 20 19 20 22 25 26 29 28 30 26 22 22 27 29 28 30 30
27 29 30 32 33 33 31 31 32 31 32 34 33 29 26 19 8 1 2 4 7 9 12 15 16 18 18 20 22 23 26 33 26 29 28 34 30 26 28 33 32 32 31
26 28 30 30 31 32 33 32 31 31 31 29 31 32 31 27 24 16 9 2 2 3 5 6 9 11 16 18 20 23 25 30 22 23 29 30 32 30 34 36 35 34 32
Wind_Direction
287 291 287 285 293 294 281 274 262 255 250 243 236 229 232 233 235 241 245 251 255 259 255 258 258 261 261 262 259 257 260 270 280 282 293 269 317 293 274 245 237 242 232
286 284 282 284 284 273 276 272 268 260 253 249 246 241 240 241 240 241 243 251 253 257 267 253 254 254 255 260 254 256 260 269 276 285 282 302 305 299 292 248 246 237 241
30 17 335 296 268 263 254 269 271 267 259 254 249 246 244 245 246 248 254 256 259 260 251 250 253 250 252 254 256 255 257 262 266 267 272 277 296 286 283 255 242 234 251
359 354 347 331 327 291 265 258 259 261 263 263 259 255 252 250 251 251 254 258 258 254 240 249 252 249 249 253 256 254 253 255 259 263 266 270 278 270 264 264 265 264 255
344 348 353 343 311 294 290 278 268 264 263 263 260 259 257 252 253 256 256 256 257 254 251 250 255 252 251 251 250 249 251 251 252 257 261 266 268 264 264 260 257 262 259
334 335 338 337 329 309 290 287 284 280 282 278 273 261 260 257 253 257 259 259 257 256 254 259 255 252 249 250 249 246 245 247 249 254 257 259 266 261 262 263 255 253 262
311 313 313 308 304 297 291 288 293 293 284 281 285 282 271 261 258 261 259 257 258 255 254 257 254 253 247 245 249 249 244 246 247 254 252 254 252 252 256 259 260 259 258
298 300 300 297 293 287 283 283 288 291 292 291 282 283 282 273 267 261 260 260 255 253 256 254 250 251 249 248 250 250 245 247 245 247 250 252 253 254 252 259 260 259 256
299 299 298 293 286 281 280 282 286 287 284 283 282 281 280 275 275 275 274 266 261 254 253 254 251 246 250 248 252 252 251 248 251 247 248 252 249 247 252 255 254 255 259
301 299 298 295 289 286 283 282 283 283 280 279 277 277 277 276 275 270 272 275 271 259 237 257 249 246 246 247 248 253 251 250 249 250 248 247 247 250 250 255 252 250 250
298 296 296 298 297 293 292 285 282 281 279 277 278 279 277 270 269 273 263 266 269 265 260 258 245 251 242 239 241 245 248 255 250 250 249 249 250 251 255 252 246 248 248
300 299 299 299 299 297 299 296 291 284 280 277 278 280 274 272 269 268 271 259 263 264 256 258 254 241 241 238 245 245 246 249 250 248 247 247 248 250 255 256 249 250 254
298 298 302 303 301 297 294 294 294 289 283 280 276 279 277 272 273 266 269 261 261 264 256 244 218 267 235 252 248 249 249 244 248 247 248 246 248 253 258 259 248 248 250
303 301 304 306 306 300 298 294 290 288 289 285 281 278 276 276 270 265 267 259 264 254 243 247 249 248 226 232 240 244 249 244 244 245 248 249 249 252 257 256 249 245 249
313 311 311 315 315 307 299 296 290 289 288 286 282 281 276 277 269 270 269 258 258 258 260 257 252 241 241 241 244 244 246 249 244 245 242 246 247 249 251 249 244 242 244
326 327 322 319 317 316 314 308 296 296 296 288 283 278 277 275 267 261 265 263 257 254 253 253 252 245 250 257 259 257 254 248 249 256 248 244 247 246 247 244 240 237 241
330 329 327 322 316 316 312 310 307 306 306 304 291 282 277 277 269 258 256 264 260 253 248 253 256 248 247 257 267 261 258 255 249 249 255 246 246 245 244 241 235 235 240
337 333 330 331 326 318 315 309 307 303 305 306 303 290 286 278 271 258 252 254 258 255 245 247 255 257 255 264 267 256 249 245 250 251 254 252 243 241 243 241 236 234 237
349 341 335 332 327 314 303 302 304 305 306 303 304 297 295 290 272 256 250 249 255 261 254 255 258 258 260 259 263 261 251 246 250 253 248 251 248 239 241 241 237 232 238
1 357 353 351 343 339 338 327 324 321 320 312 307 304 301 295 272 256 253 252 251 256 257 263 266 269 266 261 262 266 255 253 256 255 253 248 247 238 236 235 232 233 238
7 8 8 6 3 358 351 340 330 322 315 319 322 314 305 288 273 261 254 257 257 253 259 268 273 279 271 262 265 265 257 252 242 251 247 247 250 238 233 236 235 236 243
12 11 15 13 13 13 9 2 353 345 340 330 323 323 316 276 261 260 260 262 264 259 256 259 269 270 267 265 270 272 269 262 246 241 244 248 244 240 234 236 241 238 238
16 20 21 22 21 21 20 17 13 8 2 358 353 333 331 317 283 269 263 263 267 259 257 264 266 265 270 274 282 280 271 257 253 244 243 242 243 238 235 229 230 230 226
25 25 23 23 22 22 20 18 20 17 15 15 14 7 10 352 294 273 274 276 265 268 269 270 264 266 267 270 275 280 279 270 251 245 231 232 247 236 228 226 229 226 227
29 29 27 24 22 19 18 18 18 18 20 21 20 28 17 19 16 27 286 269 253 260 257 257 253 249 246 271 272 282 270 267 245 242 239 236 232 237 238 230 227 227 229
23 23 21 19 19 18 18 17 17 17 18 20 23 27 32 26 25 17 39 76 172 251 274 264 257 253 257 270 284 291 279 269 240 230 226 231 231 244 244 230 225 225 227